When you browse on this site, cookies collect data to enhance your experience and personalize the content and advertising you see.
Visit our Privacy Policy to learn more. By continuing to use the site, you agree to this use of cookies and data.
  • In Latvia
  • List of Countries
  • For 7 days
  • Water Temperature
  • Weather Map
  • Weather Widgets
  • user-avatar
    Login

    Hourly Weather Wil

    Today, 15 September, Sunday

    Time Temperature Precipitation Wind Pressure Humidity
    00:00 +15°C° 0 mm 0 mps 719 mmHg 96%
    01:00 +15°C° 0 mm 0 mps 719 mmHg 96%
    02:00 +14°C° 0 mm 0 mps 719 mmHg 96%
    03:00 +14°C° 0 mm 0 mps 718 mmHg 96%
    04:00 +14°C° 0 mm 0 mps 718 mmHg 96%
    05:00 +14°C° 0 mm 0 mps 718 mmHg 96%
    06:00 +15°C° 0 mm 0 mps 718 mmHg 95%
    07:00 +15°C° 0 mm 0 mps 718 mmHg 94%
    08:00 +17°C° 0 mm 0 mps 718 mmHg 89%
    09:00 +21°C° 0 mm 1 mps 718 mmHg 84%
    10:00 +22°C° 0 mm 1 mps 718 mmHg 79%
    11:00 +24°C° 0 mm 1 mps 718 mmHg 73%
    12:00 +25°C° 0 mm 1 mps 718 mmHg 68%
    13:00 +27°C° 0 mm 1 mps 718 mmHg 62%
    14:00 +27°C° 0 mm 1 mps 718 mmHg 61%
    15:00 +27°C° 0 mm 1 mps 717 mmHg 61%
    16:00 +27°C° 0 mm 1 mps 717 mmHg 60%
    17:00 +25°C° 0 mm 1 mps 717 mmHg 68%
    18:00 +21°C° 0 mm 0 mps 716 mmHg 77%
    19:00 +18°C° 0 mm 0 mps 716 mmHg 85%
    20:00 +18°C° 0 mm 0 mps 716 mmHg 86%
    21:00 +19°C° 0 mm 1 mps 716 mmHg 87%
    22:00 +19°C° 0 mm 1 mps 716 mmHg 88%
    23:00 +18°C° 0 mm 1 mps 716 mmHg 89%

    Tomorrow, 16 September, Monday

    Time Temperature Precipitation Wind Pressure Humidity
    00:00 +18°C° 0 mm 1 mps 716 mmHg 90%
    01:00 +18°C° 0 mm 1 mps 716 mmHg 90%
    02:00 +16°C° 0 mm 1 mps 716 mmHg 91%
    03:00 +15°C° 0 mm 0 mps 715 mmHg 91%
    04:00 +15°C° 0 mm 0 mps 715 mmHg 92%
    05:00 +15°C° 0 mm 0 mps 715 mmHg 91%
    06:00 +15°C° 0 mm 0 mps 715 mmHg 91%
    07:00 +16°C° 0 mm 0 mps 715 mmHg 91%
    08:00 +20°C° 0 mm 1 mps 715 mmHg 83%
    09:00 +22°C° 0 mm 1 mps 715 mmHg 76%
    10:00 +24°C° 0 mm 1 mps 715 mmHg 69%
    11:00 +25°C° 0 mm 1 mps 715 mmHg 65%
    12:00 +26°C° 0 mm 2 mps 715 mmHg 60%
    13:00 +27°C° 0 mm 2 mps 715 mmHg 56%
    14:00 +27°C° 0.1 mm 2 mps 714 mmHg 58%
    15:00 +27°C° 0.1 mm 2 mps 714 mmHg 59%
    16:00 +27°C° 0.1 mm 2 mps 714 mmHg 61%
    17:00 +25°C° 0.4 mm 2 mps 714 mmHg 70%
    18:00 +22°C° 0.4 mm 1 mps 714 mmHg 78%
    19:00 +20°C° 0.4 mm 1 mps 713 mmHg 86%
    20:00 +19°C° 0.1 mm 1 mps 714 mmHg 88%
    21:00 +18°C° 0.1 mm 1 mps 714 mmHg 90%
    22:00 +16°C° 0.1 mm 0 mps 714 mmHg 91%
    23:00 +15°C° 0 mm 0 mps 714 mmHg 91%

    Day after tomorrow, 17 September, Tuesday

    Time Temperature Precipitation Wind Pressure Humidity
    00:00 +15°C° 0 mm 0 mps 714 mmHg 92%
    01:00 +14°C° 0 mm 0 mps 713 mmHg 92%
    02:00 +14°C° 0 mm 0 mps 713 mmHg 92%
    03:00 +13°C° 0 mm 0 mps 713 mmHg 92%
    04:00 +13°C° 0 mm 0 mps 713 mmHg 91%
    05:00 +13°C° 0.1 mm 0 mps 713 mmHg 91%
    06:00 +13°C° 0.1 mm 0 mps 713 mmHg 91%
    07:00 +13°C° 0.1 mm 0 mps 713 mmHg 91%
    08:00 +15°C° 0.1 mm 0 mps 713 mmHg 87%
    09:00 +18°C° 0.1 mm 1 mps 713 mmHg 82%
    10:00 +19°C° 0.1 mm 1 mps 713 mmHg 78%
    11:00 +20°C° 0 mm 1 mps 713 mmHg 73%
    12:00 +22°C° 0 mm 1 mps 713 mmHg 68%
    13:00 +23°C° 0 mm 1 mps 713 mmHg 62%
    14:00 +22°C° 0 mm 1 mps 713 mmHg 63%
    15:00 +21°C° 0 mm 2 mps 713 mmHg 64%
    16:00 +21°C° 0 mm 2 mps 712 mmHg 65%
    17:00 +19°C° 0 mm 2 mps 712 mmHg 73%
    18:00 +18°C° 0 mm 2 mps 712 mmHg 81%
    19:00 +16°C° 0 mm 2 mps 712 mmHg 89%
    20:00 +15°C° 0 mm 2 mps 713 mmHg 86%
    21:00 +15°C° 0 mm 2 mps 713 mmHg 84%
    22:00 +14°C° 0 mm 2 mps 713 mmHg 82%
    23:00 +13°C° 0 mm 2 mps 713 mmHg 83%

    18 September, Wednesday

    Time Temperature Precipitation Wind Pressure Humidity
    00:00 +12°C° 0 mm 2 mps 713 mmHg 84%
    01:00 +10°C° 0 mm 2 mps 713 mmHg 85%
    02:00 +10°C° 0 mm 2 mps 713 mmHg 86%
    03:00 +10°C° 0 mm 1 mps 713 mmHg 87%
    04:00 +9°C° 0 mm 1 mps 713 mmHg 87%
    05:00 +9°C° 0 mm 1 mps 713 mmHg 87%
    06:00 +9°C° 0 mm 1 mps 713 mmHg 87%
    07:00 +8°C° 0 mm 1 mps 713 mmHg 87%
    08:00 +9°C° 0 mm 2 mps 713 mmHg 81%
    09:00 +12°C° 0 mm 2 mps 713 mmHg 75%
    10:00 +13°C° 0 mm 3 mps 714 mmHg 69%
    11:00 +14°C° 0 mm 3 mps 713 mmHg 67%
    12:00 +16°C° 0 mm 3 mps 713 mmHg 65%
    13:00 +17°C° 0 mm 4 mps 713 mmHg 63%
    14:00 +15°C° 0 mm 4 mps 713 mmHg 63%
    15:00 +15°C° 0 mm 4 mps 713 mmHg 64%
    16:00 +15°C° 0 mm 4 mps 713 mmHg 65%
    17:00 +13°C° 0 mm 3 mps 713 mmHg 69%
    18:00 +11°C° 0 mm 3 mps 713 mmHg 73%
    19:00 +10°C° 0 mm 2 mps 714 mmHg 78%
    20:00 +9°C° 0 mm 2 mps 714 mmHg 80%
    21:00 +8°C° 0 mm 2 mps 714 mmHg 83%
    22:00 +7°C° 0 mm 2 mps 715 mmHg 85%
    23:00 +6°C° 0 mm 2 mps 715 mmHg 85%

    19 September, Thursday

    Time Temperature Precipitation Wind Pressure Humidity
    00:00 +6°C° 0 mm 2 mps 715 mmHg 85%
    01:00 +5°C° 0 mm 2 mps 715 mmHg 86%
    02:00 +5°C° 0 mm 2 mps 715 mmHg 87%
    03:00 +4°C° 0 mm 2 mps 714 mmHg 88%
    04:00 +5°C° 0 mm 1 mps 714 mmHg 89%
    05:00 +5°C° 0 mm 1 mps 714 mmHg 88%
    06:00 +5°C° 0 mm 1 mps 715 mmHg 88%
    07:00 +5°C° 0 mm 1 mps 715 mmHg 88%
    08:00 +6°C° 0 mm 2 mps 715 mmHg 79%
    09:00 +9°C° 0 mm 3 mps 716 mmHg 70%
    10:00 +11°C° 0 mm 3 mps 716 mmHg 61%
    11:00 +12°C° 0 mm 4 mps 716 mmHg 58%
    12:00 +13°C° 0 mm 4 mps 716 mmHg 55%
    13:00 +13°C° 0 mm 5 mps 716 mmHg 52%
    14:00 +13°C° 0 mm 5 mps 716 mmHg 54%
    15:00 +13°C° 0 mm 5 mps 716 mmHg 55%
    16:00 +13°C° 0 mm 5 mps 716 mmHg 57%
    17:00 +12°C° 0 mm 4 mps 716 mmHg 64%
    18:00 +10°C° 0 mm 3 mps 716 mmHg 71%
    19:00 +8°C° 0 mm 3 mps 717 mmHg 78%
    20:00 +7°C° 0 mm 3 mps 717 mmHg 80%
    21:00 +7°C° 0 mm 2 mps 717 mmHg 82%
    22:00 +6°C° 0 mm 2 mps 718 mmHg 84%
    23:00 +5°C° 0 mm 2 mps 718 mmHg 84%

    20 September, Friday

    Time Temperature Precipitation Wind Pressure Humidity
    00:00 +5°C° 0 mm 2 mps 718 mmHg 85%
    01:00 +4°C° 0 mm 2 mps 717 mmHg 86%
    02:00 +4°C° 0 mm 2 mps 717 mmHg 87%
    03:00 +5°C° 0 mm 1 mps 717 mmHg 88%
    04:00 +4°C° 0 mm 1 mps 717 mmHg 89%
    05:00 +4°C° 0 mm 1 mps 717 mmHg 88%
    06:00 +5°C° 0 mm 1 mps 717 mmHg 87%
    07:00 +5°C° 0 mm 1 mps 717 mmHg 86%
    08:00 +7°C° 0 mm 1 mps 717 mmHg 78%
    09:00 +9°C° 0 mm 2 mps 718 mmHg 69%
    10:00 +12°C° 0 mm 2 mps 718 mmHg 60%
    11:00 +12°C° 0 mm 3 mps 718 mmHg 56%
    12:00 +14°C° 0 mm 3 mps 718 mmHg 52%
    13:00 +16°C° 0 mm 3 mps 717 mmHg 48%
    14:00 +16°C° 0 mm 3 mps 717 mmHg 51%
    15:00 +16°C° 0 mm 3 mps 717 mmHg 54%
    16:00 +14°C° 0 mm 3 mps 717 mmHg 56%
    17:00 +12°C° 0 mm 3 mps 717 mmHg 65%
    18:00 +10°C° 0 mm 2 mps 717 mmHg 74%
    19:00 +9°C° 0 mm 1 mps 716 mmHg 83%
    20:00 +8°C° 0 mm 1 mps 717 mmHg 85%
    21:00 +8°C° 0 mm 1 mps 717 mmHg 86%
    22:00 +7°C° 0 mm 1 mps 717 mmHg 88%
    23:00 +7°C° 0 mm 1 mps 717 mmHg 89%
    Show more